Hourly Data Report for May 09, 2017

ATIKOKAN (AUT)
ONTARIO

48°45'40.000" N
91°37'41.000" W
389.30 m
6020LPQ
71747
WCH

Download Data

Hourly Data (May 2017)
Hourly Data Report for May 9, 2017
TIME
LST
Temp Definition
°C
Dew Point Definition
°C
Rel Hum Definition
%
Precip. Amount Definition
mm

Wind Dir Definition
10's deg

Wind Spd Definition
km/h
Visibility Definition
km
Stn Press Definition
kPa
Hmdx Definition


Wind Chill Definition


Weather Definition


00:00 3.7 -1.0 72 0.0 4 1   96.90     LegendNANA
01:00 3.6 -1.2 71 0.0 7 2   96.86     LegendNANA
02:00 4.6 -1.1 66 0.0 0 1   96.83     LegendNANA
03:00 5.0 -2.6 58 0.0 6 2   96.81     LegendNANA
04:00 5.4 -4.6 49 0.0 13 3   96.79     LegendNANA
05:00 5.5 -5.0 47 0.0 13 4   96.71     LegendNANA
06:00 5.8 -5.6 44 0.0 15 3   96.72     LegendNANA
07:00 6.4 -9.2 32 0.0 15 2   96.70     LegendNANA
08:00 7.4 -8.8 31 0.0 17 6   96.67     LegendNANA
09:00 8.4 -7.7 31 0.0 20 10   96.60     LegendNANA
10:00 9.1 -6.0 34 0.0 22 10   96.57     LegendNANA
11:00 8.6 -2.1 47 0.0 23 8   96.51     LegendNANA
12:00 12.5 1.9 48 0.0 23 4   96.42     LegendNANA
13:00 15.4 3.1 44 0.0 13 3   96.30     LegendNANA
14:00 18.3 1.5 32 0.0 27 9   96.19     LegendNANA
15:00 17.6 1.0 33 0.0 28 15   96.19     LegendNANA
16:00 17.1 1.5 35 0.0 27 17   96.20     LegendNANA
17:00 15.8 2.3 40 0.0 30 16   96.27     LegendNANA
18:00 13.1 2.9 50 0.0 31 16   96.36     LegendNANA
19:00 11.4 1.9 52 0.0 30 19   96.42     LegendNANA
20:00 10.9 2.1 54 0.0 28 8   96.40     LegendNANA
21:00 8.4 1.7 63 0.0 26 1   96.38     LegendNANA
22:00 5.0 1.9 81 0.0   0   96.33     LegendNANA
23:00 3.5 1.8 89 0.0   0   96.32     LegendNANA

Notes on Data Quality.

Legend

  • E = Estimated
  • M = Missing
  • NA = Not Available*
  • [empty] = Indicates an unobserved value
Date modified: